Location: S�tio Afonso Gruber
(26.1760°S, 49.5250°W)
Time: 21:49:47
(UTC+00:00)

Cosmos 2016 Rocket - Pass Details

Date: 10 October 2020
Orbit: 946 x 1001 km, 83.0° (Epoch: 27 October)

Event Time Altitude Azimuth Distance (km) Brightness Sun altitude
Exits shadow 05:42:38 20° 68° (ENE) 2,112 6.0 -39.5°
Maximum altitude 05:44:33 23° 93° (E) 1,971 6.0 -39.2°
Drops below altitude 10° 05:49:20 10° 143° (SE) 2,771 7.0 -38.3°
Sets 05:52:25 0° 156° (SSE) 3,734 7.7 -37.7°
